Regional Weather Roundup
Issued by NWS

Home | Current Version | Previous Version | Text Only | Print | Product List | Glossary Off
Versions: 1 2 3 4 5 6 7 8 9 10 11 12 13 14 15 16 17 18 19 20 21 22 23 24 25 26 27 28 29 30 31 32 33 34 35 36 37 38 39 40 41 42 43 44 45 46 47 48 49 50

000
ASUS43 KOAX 161102
RWRNE

WEATHER ROUNDUP FOR NEBRASKA
NATIONAL WEATHER SERVICE OMAHA NE
600 AM CDT MON OCT 16 2017

NOTES: SATELLITE DATA IS BEING USED TO AUGMENT CLOUD COVER ABOVE
       12000 FEET.
       "FAIR" INDICATES FEW OR NO CLOUDS BELOW 12,000 FEET WITH NO
       SIGNIFICANT WEATHER AND/OR OBSTRUCTIONS TO VISIBILITY.


NEZ001>004-019>022-054>056-161200-
NEBRASKA PANHANDLE

CITY           SKY/WX    TMP DP  RH WIND       PRES   REMARKS
SCOTTSBLUFF    CLOUDY    28  23  81 CALM      30.26S
ALLIANCE       CLOUDY    26  22  84 SW6       30.24F WCI  19
CHADRON        CLEAR     31  24  75 CALM      30.20F
GORDON         FAIR      41  28  60 SW14      30.20F
KIMBALL        CLOUDY    36  25  64 W10       30.30S WCI  28
SIDNEY         CLOUDY    29  24  82 NW10      30.28F HAZE    WCI  20
$$

NEZ057>060-069>072-079>082-161200-
SOUTHWEST NEBRASKA

CITY           SKY/WX    TMP DP  RH WIND       PRES   REMARKS
NORTH PLATTE   CLOUDY    30  28  92 CALM      30.29F
IMPERIAL       CLOUDY    34  26  72 W5        30.30F WCI  30
LEXINGTON      CLEAR     32  30  92 NE3       30.30F
MCCOOK         CLOUDY    34  30  85 SW5       30.31F WCI  30
OGALLALA       CLEAR     31  28  90 W5        30.28F WCI  26
$$

NEZ005>010-023>029-035>040-094-161200-
NORTH CENTRAL NEBRASKA

CITY           SKY/WX    TMP DP  RH WIND       PRES   REMARKS
VALENTINE      CLOUDY    34  28  79 CALM      30.21F
AINSWORTH      CLEAR     40  32  73 S9        30.23F WCI  34
BROKEN BOW     CLEAR     32  28  85 CALM      30.28F
O`NEILL        CLEAR     37  33  84 S7        30.27F WCI  32
ORD            CLEAR     31  27  85 CALM      30.28F
THEDFORD       CLEAR     39  29  66 CALM      30.26F
$$

NEZ041-046>049-061>064-073>077-083>087-161200-
SOUTH CENTRAL NEBRASKA

CITY           SKY/WX    TMP DP  RH WIND       PRES   REMARKS
GRAND ISLAND   CLEAR     36  34  92 SW3       30.32S
AURORA         CLEAR     39  32  77 CALM      30.32S
HASTINGS       CLEAR     39  32  76 CALM      30.32F
HEBRON         CLEAR     34  33  95 CALM      30.35S
HOLDREGE       CLEAR     42  28  58 S8        30.31S
KEARNEY        CLEAR     39  32  76 SW3       30.32S
YORK           CLEAR     37  36  93 CALM      30.33S
$$

NEZ011>018-030>034-042>045-161200-
NORTHEAST NEBRASKA

CITY           SKY/WX    TMP DP  RH WIND       PRES   REMARKS
NORFOLK        CLEAR     33  31  92 CALM      30.30S
ALBION         CLEAR     32  31  96 CALM      30.30S
BLAIR          CLEAR     40  35  82 S3        30.32S
COLUMBUS       CLEAR     30  28  92 CALM      30.33R
FREMONT        CLEAR     37  35  96 CALM      30.33S
TEKAMAH        CLEAR     34  31  88 SW6       30.33R WCI  29
WAYNE          CLEAR     32  30  92 SW3       30.30S
$$

NEZ050>053-065>068-078-088>093-161200-
SOUTHEAST NEBRASKA

CITY           SKY/WX    TMP DP  RH WIND       PRES   REMARKS
LINCOLN        CLEAR     37  34  89 S5        30.35S WCI  33
OMAHA EPPLEY   CLEAR     41  35  79 S6        30.33S
BEATRICE       CLEAR     38  36  90 CALM      30.35S
FALLS CITY     CLEAR     37  35  92 CALM      30.36R
NEBRASKA CITY  CLEAR     42  37  81 SW6       30.34S
PLATTSMOUTH    CLEAR     43  35  72 SW7       30.34R
$$

NEZ044-045-051>053-067-161200-
OMAHA AREA

CITY           SKY/WX    TMP DP  RH WIND       PRES   REMARKS
OMAHA EPPLEY   CLEAR     41  35  79 S6        30.33S
BLAIR          CLEAR     40  35  82 S3        30.32S
FREMONT        CLEAR     37  35  96 CALM      30.33S
MILLARD        CLEAR     37  37  97 CALM      30.34R FOG
OFFUTT AFB     CLEAR     35  33  96 CALM      30.33R
PLATTSMOUTH    CLEAR     43  35  72 SW7       30.34R
WAHOO          FAIR      36  34  91 CALM      30.33S
$$




USA.gov is the U.S. government's official web portal to all federal, state and local government web resources and services.